x

Halibut Bank (46146) Wave Buoy

5:00pm - Tue 29th Jul 2014 All times are PDT. -7 hours from GMT.

  • Sig Wave height 0.3ft
  • Peak Period 6s
  • Wind
    2mph, 4mph gusts
  • Sea Temp 74°f
  • Air Temp 71°f
  • Sea Pressure 1017.9mb
  • Halibut Bank
  • Halibut Bank

More Historic Weather Station data

Upgrade to MSW Pro to gain access to the past 30 days of data for over 8000 Wavebouys and Weather Stations around the globe.

Join Pro

Comparision Forecast

View Surf forecast
   
Tue 07/29 5:00pm 0.3ft 6s 2 4 mph 1017.9mb 74f 71f
4:00pm 0.3ft 6s 2 4 mph 1018.5mb 74f 70f
3:00pm 0.3ft 3s 2 4 mph 1019.2mb 73f 70f
2:00pm 0.3ft 3s 4
mph
1019.8mb 72f 69f
1:00pm 0.3ft 3s 4 7 mph 1020.2mb 71f 68f
12:00pm 0.3ft 4s 7 9 mph 1020.3mb 71f 67f
11:00am 0.3ft 3s 4
mph
1020.6mb 71f 67f
10:00am 0.3ft 6s 4 7 mph 1020.4mb 70f 66f
9:00am 0.3ft 3s 2 4 mph 1020.3mb 70f 67f
8:00am 0.3ft 5s 4 7 mph 1020.3mb 69f 66f
7:00am 0.3ft 3s 4 7 mph 1019.9mb 69f 67f
6:00am 0.3ft 6s 4 7 mph 1019.6mb 68f 66f
5:00am 0.3ft 2s 7 9 mph 1019.4mb 69f 66f
4:00am 0.3ft 4s 7
mph
1019mb 69f 67f
3:00am 0.3ft 2s 4
mph
1018.7mb 69f 68f
2:00am 0.3ft 2s  -  2 mph 1018.4mb 69f 68f
1:00am 0.3ft 4s 2 4 mph 1018.3mb 69f 68f
12:00am 0.3ft 6s 2 4 mph 1018.1mb 69f 68f
Mon 07/28 11:00pm 0.3ft 4s 4 7 mph 1017.7mb 69f 68f
10:00pm 0.3ft 3s 7
mph
1017.5mb 70f 69f
9:00pm 0.3ft 6s 7
mph
1017.1mb 70f 69f
8:00pm 0.3ft 3s 4 7 mph 1017mb 71f 69f
7:00pm 0.3ft 6s 2 4 mph 1017.2mb 71f 70f
6:00pm 0.3ft 6s 4
mph
1017.5mb 71f 70f
5:00pm 0.3ft 6s 2 4 mph 1017.9mb 71f 71f
4:00pm 0.3ft 2s 7
mph
1018.3mb 70f 69f
3:00pm 0.3ft 2s 7
mph
1019mb 69f 68f
2:00pm 0.7ft 2s 7 9 mph 1019.5mb 69f 67f
1:00pm 0.7ft 3s 7
mph
1019.9mb 68f 67f
12:00pm 0.7ft 3s 9 11 mph 1020mb 68f 66f
11:00am 0.7ft 3s 9 11 mph 1020.2mb 67f 65f
10:00am 0.7ft 2s 9 11 mph 1020.2mb 66f 65f
9:00am 0.7ft 3s 9 11 mph 1020.4mb 65f 65f
8:00am 0.3ft 4s 4 7 mph 1020.4mb 65f 64f
7:00am 0.3ft 3s 2
mph
1020.3mb 65f 64f
6:00am 0.3ft 3s 2
mph
1020.1mb 65f 64f
5:00am 0.3ft 6s 2
mph
1019.8mb 65f 64f
4:00am 0.3ft 2s  -  mph 1019.5mb 65f 63f
3:00am 0.3ft 2s  -  2 mph 1019.4mb 66f 64f
2:00am 0.3ft 2s 2
mph
1019.2mb 66f 65f
1:00am 0.3ft 2s 2 4 mph 1019.1mb 66f 65f
12:00am 0.3ft 2s 7
mph
1018.9mb 66f 68f
Sun 07/27 11:00pm 0.7ft 2s 9 11 mph 1018.5mb 67f 68f
10:00pm 0.7ft 2s 13
mph
1018.2mb 67f 69f
9:00pm 0.7ft 2s 11 13 mph 1018.1mb 67f 69f
8:00pm 0.7ft 3s 13
mph
1018mb 68f 70f
7:00pm 0.7ft 3s 11 13 mph 1018.2mb 68f 70f
6:00pm 0.7ft 3s 13 16 mph 1018.6mb 69f 69f
5:00pm 0.7ft 3s 11 13 mph 1019.3mb 69f 68f
4:00pm 0.7ft 2s 11 13 mph 1020.1mb 69f 68f
3:00pm 1ft 2s 11 13 mph 1020.6mb 67f 67f
2:00pm 0.7ft 2s 11 13 mph 1021.2mb 67f 66f
1:00pm 0.3ft 3s 9 11 mph 1021.9mb 67f 65f
12:00pm 0.3ft 3s 9
mph
1022.3mb 67f 64f
11:00am 0.3ft 3s 7
mph
1022.7mb 66f 64f
10:00am 0.3ft 3s 4 7 mph 1023mb 65f 63f
9:00am 0.3ft 2s 4 7 mph 1023mb 64f 63f
8:00am 0.3ft 6s 2 4 mph 1023mb 65f 62f
7:00am 0.3ft 6s 2
mph
1022.7mb 65f 62f
6:00am 0.3ft 6s 2 4 mph 1022.2mb 65f 63f
5:00am 0.3ft 2s 7 9 mph 1021.8mb 65f 63f
4:00am 0.3ft 2s 4 7 mph 1021.7mb 65f 64f
3:00am 0.3ft 2s 7 9 mph 1021.3mb 65f 64f
2:00am 0.3ft 2s 4 7 mph 1021.4mb 65f 64f
1:00am 0.3ft 3s 7 9 mph 1021.1mb 66f 65f
12:00am 0.3ft 5s 2 4 mph 1021.1mb 66f 64f
Sat 07/26 11:00pm 0.3ft 4s 2 4 mph 1020.9mb 66f 65f
10:00pm 0.3ft 3s  -  mph 1020.7mb 66f 65f
9:00pm 0.3ft 6s  -  2 mph 1020.5mb 67f 65f
8:00pm 0.3ft 6s 2
mph
1020.2mb 67f 66f
7:00pm 0.7ft 5s 2
mph
1020.4mb 67f 66f
6:00pm 0.3ft 2s  -  mph 1020.7mb 68f 68f
5:00pm 0.7ft 6s  -  mph 1021.1mb 67f 67f
4:00pm 0.3ft 6s 4
mph
1021.3mb 67f 65f
3:00pm 0.3ft 5s  -  2 mph 1021.7mb 66f 65f
2:00pm 0.3ft 2s 2 4 mph 1022mb 65f 63f
1:00pm 0.3ft 2s 7 9 mph 1022.1mb 65f 62f
12:00pm 0.7ft 2s 7 9 mph 1022.3mb 64f 62f
11:00am 0.7ft 2s 9
mph
1022.2mb 63f 61f
10:00am 0.7ft 2s 11
mph
1022mb 63f 60f
9:00am 0.3ft 2s 9 11 mph 1021.7mb 63f 60f
8:00am 0.3ft 2s 11
mph
1021.4mb 63f 60f
7:00am 0.3ft 2s 9 11 mph 1020.9mb 63f 61f
6:00am 0.3ft 6s 9 11 mph 1020.3mb 63f 61f
5:00am 0.3ft 6s 4 7 mph 1020.1mb 63f 61f
4:00am  -  2s 4 7 mph 1019.7mb 63f 62f
3:00am  -  2s 4 7 mph 1019.6mb 64f 62f
2:00am 0.3ft 2s 2 4 mph 1019.4mb 64f 62f